,,,PA_Meas_PMT16A,,PR_Meas_QMR101_102,,RH_Meas_QMH101,,SR_Meas_QMS101,,TA_Meas_QMH101,,GenWind,,GenWind,
date,time,status,PA,status,PR,status,RH,status,SR,status,TA,status,DirAvg,status,SpdAvg,
2012-07-31, 00:00:04,VALID,1001.09,VALID,0,VALID,71.4667,VALID,0,VALID,25.1241,VALID,121,VALID,1.67148,
2012-07-31, 00:01:04,VALID,1001.07,VALID,0,VALID,71.6574,VALID,0,VALID,25.0636,VALID,123,VALID,1.29766,
2012-07-31, 00:02:04,VALID,1001.11,VALID,0,VALID,71.7108,VALID,0,VALID,25.046,VALID,123,VALID,1.7957,
2012-07-31, 00:03:04,VALID,1001.08,VALID,0,VALID,71.7032,VALID,0.104696,VALID,25.005,VALID,121,VALID,1.62617,
2012-07-31, 00:04:04,VALID,1001.1,VALID,0,VALID,71.0165,VALID,0.104696,VALID,25.0246,VALID,136,VALID,1.72148,
2012-07-31, 00:05:04,VALID,1001.1,VALID,0,VALID,71.253,VALID,0,VALID,25.0655,VALID,163,VALID,1.25352,
2012-07-31, 00:06:04,VALID,1001.05,VALID,0,VALID,70.5816,VALID,0,VALID,25.1064,VALID,136,VALID,1.57109,
2012-07-31, 00:07:04,VALID,1001.08,VALID,0,VALID,70.7647,VALID,0,VALID,25.126,VALID,132,VALID,1.33359,
2012-07-31, 00:08:04,VALID,1001.09,VALID,0,VALID,70.1086,VALID,0,VALID,25.1455,VALID,121,VALID,1.65977,
2012-07-31, 00:09:04,VALID,1001.07,VALID,0,VALID,70.6579,VALID,0,VALID,25.1436,VALID,109,VALID,1.18633,
2012-07-31, 00:10:04,VALID,1001.05,VALID,0,VALID,71.5048,VALID,0,VALID,25.085,VALID,110,VALID,1.34336,
2012-07-31, 00:11:04,VALID,1001.07,VALID,0,VALID,71.7642,VALID,0,VALID,25.0674,VALID,105,VALID,1.68633,
2012-07-31, 00:12:04,VALID,1001.02,VALID,0,VALID,72.4127,VALID,0,VALID,25.0069,VALID,105,VALID,1.64336,
2012-07-31, 00:13:04,VALID,1001.04,VALID,0,VALID,72.9163,VALID,0,VALID,24.9289,VALID,106,VALID,1.90977,
2012-07-31, 00:14:04,VALID,1001.02,VALID,0,VALID,72.8324,VALID,0,VALID,24.8703,VALID,116,VALID,1.76797,
2012-07-31, 00:15:04,VALID,1001.04,VALID,0,VALID,72.7789,VALID,0,VALID,24.8917,VALID,125,VALID,1.86211,
2012-07-31, 00:16:04,VALID,1001.03,VALID,0,VALID,72.6798,VALID,0,VALID,24.8917,VALID,128,VALID,1.9207,
2012-07-31, 00:17:04,VALID,1001.02,VALID,0,VALID,73.1452,VALID,0,VALID,24.8722,VALID,112,VALID,2.01445,
2012-07-31, 00:18:04,VALID,1001,VALID,0,VALID,73.2672,VALID,0,VALID,24.8117,VALID,108,VALID,2.03008,
2012-07-31, 00:19:04,VALID,1000.99,VALID,0,VALID,72.901,VALID,0,VALID,24.8527,VALID,115,VALID,2.21523,
2012-07-31, 00:20:04,VALID,1000.96,VALID,0,VALID,72.1609,VALID,0,VALID,24.8313,VALID,119,VALID,2.29922,
2012-07-31, 00:21:04,VALID,1000.91,VALID,0,VALID,70.8715,VALID,0,VALID,24.9289,VALID,126,VALID,3.02539,
2012-07-31, 00:22:04,VALID,1000.93,VALID,0,VALID,70.574,VALID,0,VALID,25.0265,VALID,132,VALID,2.54922,
2012-07-31, 00:23:04,VALID,1000.89,VALID,0,VALID,69.6737,VALID,0,VALID,25.0655,VALID,134,VALID,2.74961,
2012-07-31, 00:24:04,VALID,1000.89,VALID,0,VALID,70.0399,VALID,0,VALID,25.1436,VALID,130,VALID,2.45664,
2012-07-31, 00:25:04,VALID,1000.84,VALID,0,VALID,69.605,VALID,0,VALID,25.1631,VALID,129,VALID,3.03945,
2012-07-31, 00:26:04,VALID,1000.85,VALID,0,VALID,69.6127,VALID,0,VALID,25.1826,VALID,138,VALID,2.75781,
2012-07-31, 00:27:04,VALID,1000.81,VALID,0,VALID,69.1091,VALID,0,VALID,25.2236,VALID,146,VALID,3.53125,
2012-07-31, 00:28:04,VALID,1000.78,VALID,0,VALID,69.2922,VALID,0,VALID,25.2412,VALID,139,VALID,2.91914,
2012-07-31, 00:29:04,VALID,1000.72,VALID,0,VALID,68.9947,VALID,0,VALID,25.2626,VALID,142,VALID,3.43906,
2012-07-31, 00:30:04,VALID,1000.71,VALID,0,VALID,69.4906,VALID,0,VALID,25.2821,VALID,141,VALID,2.8125,
2012-07-31, 00:31:04,VALID,1000.7,VALID,0,VALID,69.7042,VALID,0,VALID,25.2607,VALID,146,VALID,3.29805,
2012-07-31, 00:32:04,VALID,1000.71,VALID,0,VALID,69.8263,VALID,0,VALID,25.2431,VALID,147,VALID,2.70547,
2012-07-31, 00:33:04,VALID,1000.69,VALID,0,VALID,69.5287,VALID,0,VALID,25.2217,VALID,140,VALID,3.6418,
2012-07-31, 00:34:04,VALID,1000.68,VALID,0,VALID,69.8797,VALID,0,VALID,25.1826,VALID,131,VALID,2.82969,
2012-07-31, 00:35:04,VALID,1000.63,VALID,0,VALID,69.7347,VALID,0,VALID,25.1845,VALID,133,VALID,3.21211,
2012-07-31, 00:36:04,VALID,1000.66,VALID,0,VALID,69.9102,VALID,0,VALID,25.1845,VALID,140,VALID,3.13438,
2012-07-31, 00:37:04,VALID,1000.64,VALID,0,VALID,70.2612,VALID,0,VALID,25.165,VALID,136,VALID,2.63594,
2012-07-31, 00:38:04,VALID,1000.65,VALID,0,VALID,70.429,VALID,0,VALID,25.126,VALID,134,VALID,2.01563,
2012-07-31, 00:39:04,VALID,1000.62,VALID,0,VALID,70.0247,VALID,0,VALID,25.126,VALID,130,VALID,3.03281,
2012-07-31, 00:40:04,VALID,1000.59,VALID,0,VALID,70.2841,VALID,0,VALID,25.126,VALID,123,VALID,3.03398,
2012-07-31, 00:41:04,VALID,1000.62,VALID,0,VALID,70.3069,VALID,0,VALID,25.1064,VALID,127,VALID,2.84727,
2012-07-31, 00:42:04,VALID,1000.57,VALID,0,VALID,70.4748,VALID,0,VALID,25.0674,VALID,126,VALID,2.76641,
2012-07-31, 00:43:04,VALID,1000.56,VALID,0,VALID,70.3222,VALID,0,VALID,25.0655,VALID,129,VALID,2.72539,
2012-07-31, 00:44:04,VALID,1000.53,VALID,0,VALID,70.5282,VALID,0,VALID,25.0869,VALID,129,VALID,3.02148,
2012-07-31, 00:45:04,VALID,1000.53,VALID,0,VALID,70.9097,VALID,0,VALID,25.0479,VALID,140,VALID,2.32148,
2012-07-31, 00:46:04,VALID,1000.5,VALID,0,VALID,70.9249,VALID,0,VALID,25.0284,VALID,131,VALID,2.48125,
2012-07-31, 00:47:04,VALID,1000.49,VALID,0,VALID,71.1462,VALID,0,VALID,25.0088,VALID,134,VALID,2.36719,
2012-07-31, 00:48:04,VALID,1000.49,VALID,0,VALID,71.2378,VALID,0,VALID,24.9698,VALID,138,VALID,1.94258,
2012-07-31, 00:49:04,VALID,1000.45,VALID,0,VALID,71.0318,VALID,0,VALID,24.9484,VALID,137,VALID,2.01836,
2012-07-31, 00:50:04,VALID,1000.43,VALID,0,VALID,71.0928,VALID,0,VALID,24.9893,VALID,145,VALID,1.82539,
2012-07-31, 00:51:04,VALID,1000.41,VALID,0,VALID,70.5816,VALID,0,VALID,24.9893,VALID,137,VALID,2.17305,
2012-07-31, 00:52:04,VALID,1000.39,VALID,0,VALID,70.9707,VALID,0,VALID,25.0088,VALID,139,VALID,1.7168,
2012-07-31, 00:53:04,VALID,1000.37,VALID,0,VALID,70.6732,VALID,0,VALID,25.0088,VALID,149,VALID,1.63359,
2012-07-31, 00:54:04,VALID,1000.4,VALID,0,VALID,70.5969,VALID,0,VALID,25.0498,VALID,138,VALID,1.96602,
2012-07-31, 00:55:04,VALID,1000.38,VALID,0,VALID,70.7418,VALID,0,VALID,25.0498,VALID,141,VALID,1.79336,
2012-07-31, 00:56:04,VALID,1000.41,VALID,0,VALID,70.9631,VALID,0,VALID,25.0088,VALID,144,VALID,1.41055,
2012-07-31, 00:57:04,VALID,1000.44,VALID,0,VALID,71.3446,VALID,0,VALID,24.9698,VALID,136,VALID,1.34922,
2012-07-31, 00:58:04,VALID,1000.44,VALID,0,VALID,71.7108,VALID,0,VALID,24.9308,VALID,130,VALID,1.46719,
2012-07-31, 00:59:04,VALID,1000.44,VALID,0,VALID,72.2449,VALID,0,VALID,24.8722,VALID,115,VALID,1.46875,
2012-07-31, 01:00:04,VALID,1000.4,VALID,0,VALID,72.3898,VALID,0,VALID,24.7941,VALID,114,VALID,1.1625,
2012-07-31, 01:01:04,VALID,1000.4,VALID,0,VALID,72.5806,VALID,0,VALID,24.7551,VALID,118,VALID,1.24063,
2012-07-31, 01:02:04,VALID,1000.36,VALID,0,VALID,73.1604,VALID,0,VALID,24.6965,VALID,110,VALID,1.09375,
2012-07-31, 01:03:04,VALID,1000.37,VALID,0,VALID,72.5577,VALID,0,VALID,24.677,VALID,118,VALID,1.26992,
2012-07-31, 01:04:04,VALID,1000.36,VALID,0,VALID,72.634,VALID,0,VALID,24.6556,VALID,141,VALID,1.32187,
2012-07-31, 01:05:04,VALID,1000.31,VALID,0,VALID,72.7103,VALID,0,VALID,24.677,VALID,145,VALID,1.4668,
2012-07-31, 01:06:04,VALID,1000.3,VALID,0,VALID,72.7484,VALID,0,VALID,24.6965,VALID,144,VALID,1.38516,
2012-07-31, 01:07:04,VALID,1000.27,VALID,0,VALID,72.8095,VALID,0,VALID,24.716,VALID,148,VALID,1.27266,
2012-07-31, 01:08:04,VALID,1000.23,VALID,0,VALID,72.7027,VALID,0,VALID,24.6751,VALID,140,VALID,1.3793,
2012-07-31, 01:09:04,VALID,1000.22,VALID,0,VALID,72.7179,VALID,0,VALID,24.6965,VALID,156,VALID,1.63125,
2012-07-31, 01:10:04,VALID,1000.2,VALID,0,VALID,72.5119,VALID,0,VALID,24.6946,VALID,156,VALID,1.60195,
2012-07-31, 01:11:04,VALID,1000.19,VALID,0,VALID,72.3822,VALID,0,VALID,24.7356,VALID,155,VALID,1.88047,
2012-07-31, 01:12:04,VALID,1000.13,VALID,0,VALID,72.5501,VALID,0,VALID,24.7551,VALID,151,VALID,1.61328,
2012-07-31, 01:13:04,VALID,1000.13,VALID,0,VALID,72.4432,VALID,0,VALID,24.7356,VALID,150,VALID,2.18438,
2012-07-31, 01:14:04,VALID,1000.12,VALID,0,VALID,72.5119,VALID,0,VALID,24.716,VALID,143,VALID,2.43203,
2012-07-31, 01:15:04,VALID,1000.12,VALID,0,VALID,72.9926,VALID,0,VALID,24.6946,VALID,137,VALID,2.08516,
2012-07-31, 01:16:04,VALID,1000.1,VALID,0,VALID,72.9773,VALID,0,VALID,24.6575,VALID,141,VALID,2.89063,
2012-07-31, 01:17:04,VALID,1000.12,VALID,0,VALID,73.3283,VALID,0,VALID,24.6575,VALID,134,VALID,2.34883,
2012-07-31, 01:18:04,VALID,1000.08,VALID,0,VALID,73.3588,VALID,0,VALID,24.5989,VALID,126,VALID,2.60781,
2012-07-31, 01:19:04,VALID,1000.08,VALID,0,VALID,74.1981,VALID,0,VALID,24.5599,VALID,131,VALID,1.8668,
2012-07-31, 01:20:04,VALID,1000.09,VALID,0,VALID,73.9768,VALID,0,VALID,24.4818,VALID,118,VALID,1.9293,
2012-07-31, 01:21:04,VALID,1000.05,VALID,0,VALID,73.7327,VALID,0,VALID,24.4409,VALID,120,VALID,2.56055,
2012-07-31, 01:22:04,VALID,1000.06,VALID,0,VALID,74.2209,VALID,0,VALID,24.4409,VALID,103,VALID,1.4082,
2012-07-31, 01:23:04,VALID,1000.07,VALID,0,VALID,73.6716,VALID,0,VALID,24.4214,VALID,120,VALID,1.85039,
2012-07-31, 01:24:04,VALID,1000.06,VALID,0,VALID,73.9234,VALID,0,VALID,24.4428,VALID,116,VALID,1.44609,
2012-07-31, 01:25:04,VALID,1000.07,VALID,0,VALID,74.1599,VALID,0,VALID,24.4233,VALID,122,VALID,1.54492,
2012-07-31, 01:26:04,VALID,1000.07,VALID,0,VALID,74.5795,VALID,0,VALID,24.3629,VALID,126,VALID,1.27656,
2012-07-31, 01:27:04,VALID,1000.07,VALID,0,VALID,74.8695,VALID,0,VALID,24.3452,VALID,127,VALID,1.16992,
2012-07-31, 01:28:04,VALID,1000.08,VALID,0,VALID,75.1746,VALID,0,VALID,24.3043,VALID,131,VALID,1.09961,
2012-07-31, 01:29:04,VALID,1000.09,VALID,0,VALID,75.2204,VALID,0,VALID,24.2671,VALID,141,VALID,1.00508,
2012-07-31, 01:30:04,VALID,1000.08,VALID,0,VALID,75.2052,VALID,0,VALID,24.2263,VALID,137,VALID,0.988281,
2012-07-31, 01:31:04,VALID,1000.05,VALID,0,VALID,74.6635,VALID,0,VALID,24.2671,VALID,140,VALID,1.23828,
2012-07-31, 01:32:04,VALID,1000.06,VALID,0,VALID,74.7092,VALID,0,VALID,24.2866,VALID,152,VALID,0.996484,
2012-07-31, 01:33:04,VALID,1000.02,VALID,0,VALID,74.5414,VALID,0,VALID,24.2866,VALID,142,VALID,1.10273,
2012-07-31, 01:34:04,VALID,1000.02,VALID,0,VALID,73.9844,VALID,0,VALID,24.3062,VALID,136,VALID,1.93477,
2012-07-31, 01:35:04,VALID,999.997,VALID,0,VALID,74.1675,VALID,0,VALID,24.3257,VALID,139,VALID,1.75625,
2012-07-31, 01:36:04,VALID,999.953,VALID,0,VALID,74.2438,VALID,0,VALID,24.3257,VALID,131,VALID,1.55352,
2012-07-31, 01:37:04,VALID,999.906,VALID,0,VALID,74.1981,VALID,0,VALID,24.3257,VALID,130,VALID,1.86016,
2012-07-31, 01:38:04,VALID,999.872,VALID,0,VALID,74.1981,VALID,0,VALID,24.2848,VALID,126,VALID,1.97891,
2012-07-31, 01:39:04,VALID,999.844,VALID,0,VALID,74.1218,VALID,0,VALID,24.2671,VALID,121,VALID,2.19766,
2012-07-31, 01:40:04,VALID,999.826,VALID,0,VALID,74.2744,VALID,0,VALID,24.2671,VALID,134,VALID,1.92852,
2012-07-31, 01:41:04,VALID,999.815,VALID,0,VALID,74.4575,VALID,0,VALID,24.3062,VALID,136,VALID,1.60742,
2012-07-31, 01:42:04,VALID,999.804,VALID,0,VALID,74.4041,VALID,0,VALID,24.2458,VALID,129,VALID,1.70039,
2012-07-31, 01:43:04,VALID,999.8,VALID,0,VALID,74.5643,VALID,0,VALID,24.2458,VALID,126,VALID,1.66484,
2012-07-31, 01:44:04,VALID,999.777,VALID,0,VALID,74.6635,VALID,0,VALID,24.2281,VALID,127,VALID,1.66211,
2012-07-31, 01:45:04,VALID,999.784,VALID,0,VALID,74.3506,VALID,0,VALID,24.2086,VALID,138,VALID,2.32773,
2012-07-31, 01:46:04,VALID,999.782,VALID,0,VALID,74.694,VALID,0,VALID,24.1872,VALID,134,VALID,1.67148,
2012-07-31, 01:47:04,VALID,999.782,VALID,0,VALID,74.7474,VALID,0,VALID,24.1872,VALID,139,VALID,1.82187,
2012-07-31, 01:48:04,VALID,999.764,VALID,0,VALID,74.8847,VALID,0,VALID,24.1677,VALID,115,VALID,1.71641,
2012-07-31, 01:49:04,VALID,999.768,VALID,0,VALID,74.5872,VALID,0,VALID,24.1482,VALID,108,VALID,1.62227,
2012-07-31, 01:50:04,VALID,999.717,VALID,0,VALID,75.0373,VALID,0,VALID,24.1696,VALID,136,VALID,1.61211,
2012-07-31, 01:51:04,VALID,999.718,VALID,0,VALID,75.2586,VALID,0,VALID,24.1305,VALID,134,VALID,1.12969,
2012-07-31, 01:52:04,VALID,999.719,VALID,0,VALID,75.2662,VALID,0,VALID,24.1092,VALID,137,VALID,1.1207,
2012-07-31, 01:53:04,VALID,999.724,VALID,0,VALID,75.4646,VALID,0,VALID,24.0915,VALID,136,VALID,1.07383,
2012-07-31, 01:54:04,VALID,999.698,VALID,0,VALID,75.1289,VALID,0,VALID,24.0897,VALID,131,VALID,1.19844,
2012-07-31, 01:55:04,VALID,999.694,VALID,0,VALID,75.0373,VALID,0,VALID,24.1092,VALID,132,VALID,1.29062,
2012-07-31, 01:56:04,VALID,999.699,VALID,0,VALID,75.1899,VALID,0,VALID,24.1092,VALID,134,VALID,0.935938,
2012-07-31, 01:57:04,VALID,999.715,VALID,0,VALID,75.4417,VALID,0,VALID,24.0701,VALID,135,VALID,0.487109,
2012-07-31, 01:58:04,VALID,999.701,VALID,0,VALID,75.1136,VALID,0,VALID,24.0506,VALID,148,VALID,0.857813,
2012-07-31, 01:59:04,VALID,999.713,VALID,0,VALID,75.2891,VALID,0,VALID,24.072,VALID,148,VALID,0.640234,
2012-07-31, 02:00:04,VALID,999.696,VALID,0,VALID,75.2509,VALID,0,VALID,24.072,VALID,145,VALID,0.845312,
2012-07-31, 02:01:04,VALID,999.718,VALID,0,VALID,75.3501,VALID,0,VALID,24.0915,VALID,145,VALID,0.517187,
2012-07-31, 02:02:04,VALID,999.719,VALID,0,VALID,75.2967,VALID,0,VALID,24.0915,VALID,145,VALID,0.538281,
2012-07-31, 02:03:04,VALID,999.737,VALID,0,VALID,75.2891,VALID,0,VALID,24.0915,VALID,145,VALID,0.511328,
2012-07-31, 02:04:04,VALID,999.741,VALID,0,VALID,75.3501,VALID,0,VALID,24.072,VALID,147,VALID,0.642969,
2012-07-31, 02:05:04,VALID,999.755,VALID,0,VALID,75.2052,VALID,0,VALID,24.0506,VALID,141,VALID,0.923437,
2012-07-31, 02:06:04,VALID,999.728,VALID,0,VALID,75.167,VALID,0,VALID,24.0701,VALID,139,VALID,0.862109,
2012-07-31, 02:07:04,VALID,999.723,VALID,0,VALID,75.2662,VALID,0,VALID,24.0701,VALID,139,VALID,0.632031,
2012-07-31, 02:08:04,VALID,999.702,VALID,0,VALID,75.1975,VALID,0,VALID,24.0915,VALID,139,VALID,0.389844,
2012-07-31, 02:09:04,VALID,999.717,VALID,0,VALID,75.2891,VALID,0,VALID,24.0701,VALID,139,VALID,0,
2012-07-31, 02:10:04,VALID,999.705,VALID,0,VALID,75.4264,VALID,0,VALID,24.072,VALID,139,VALID,0,
2012-07-31, 02:11:04,VALID,999.687,VALID,0,VALID,75.6858,VALID,0,VALID,24.0116,VALID,139,VALID,0,
2012-07-31, 02:12:04,VALID,999.66,VALID,0,VALID,76.258,VALID,0,VALID,24.0116,VALID,139,VALID,0,
2012-07-31, 02:13:04,VALID,999.632,VALID,0,VALID,76.2657,VALID,0,VALID,23.9726,VALID,139,VALID,0.208594,
2012-07-31, 02:14:04,VALID,999.62,VALID,0,VALID,76.5632,VALID,0,VALID,23.914,VALID,139,VALID,0.508594,
2012-07-31, 02:15:04,VALID,999.627,VALID,0,VALID,76.9218,VALID,0,VALID,23.875,VALID,139,VALID,0.554688,
2012-07-31, 02:16:04,VALID,999.648,VALID,0,VALID,76.8837,VALID,0,VALID,23.8378,VALID,140,VALID,0.882813,
2012-07-31, 02:17:04,VALID,999.613,VALID,0,VALID,76.6472,VALID,0,VALID,23.8378,VALID,145,VALID,1.28984,
2012-07-31, 02:18:04,VALID,999.621,VALID,0,VALID,76.815,VALID,0.104696,VALID,23.8555,VALID,135,VALID,1.22969,
2012-07-31, 02:19:04,VALID,999.631,VALID,0,VALID,76.9218,VALID,0,VALID,23.8378,VALID,116,VALID,1.26172,
2012-07-31, 02:20:04,VALID,999.602,VALID,0,VALID,76.8761,VALID,0,VALID,23.8165,VALID,120,VALID,1.18711,
2012-07-31, 02:21:04,VALID,999.608,VALID,0,VALID,76.9066,VALID,0,VALID,23.8183,VALID,120,VALID,0.923437,
2012-07-31, 02:22:04,VALID,999.563,VALID,0,VALID,76.8455,VALID,0,VALID,23.8183,VALID,125,VALID,1.01367,
2012-07-31, 02:23:04,VALID,999.559,VALID,0,VALID,76.8837,VALID,0,VALID,23.8378,VALID,129,VALID,0.980078,
2012-07-31, 02:24:04,VALID,999.537,VALID,0,VALID,77.1126,VALID,0,VALID,23.797,VALID,129,VALID,0.734375,
2012-07-31, 02:25:04,VALID,999.53,VALID,0,VALID,77.3109,VALID,0,VALID,23.7775,VALID,121,VALID,1.08555,
2012-07-31, 02:26:04,VALID,999.508,VALID,0,VALID,77.6161,VALID,0,VALID,23.7597,VALID,97,VALID,1.10156,
2012-07-31, 02:27:04,VALID,999.525,VALID,0,VALID,77.8526,VALID,0,VALID,23.7207,VALID,99,VALID,1.14297,
2012-07-31, 02:28:04,VALID,999.535,VALID,0,VALID,77.3033,VALID,0,VALID,23.7402,VALID,100,VALID,1.11602,
2012-07-31, 02:29:04,VALID,999.517,VALID,0,VALID,77.639,VALID,0,VALID,23.7189,VALID,83,VALID,1.31562,
2012-07-31, 02:30:04,VALID,999.511,VALID,0,VALID,78.2189,VALID,0,VALID,23.7597,VALID,79,VALID,0.589844,
2012-07-31, 02:31:04,VALID,999.487,VALID,0,VALID,78.4096,VALID,0,VALID,23.7402,VALID,89,VALID,0.663672,
2012-07-31, 02:32:04,VALID,999.484,VALID,0,VALID,78.6309,VALID,0,VALID,23.7189,VALID,78,VALID,0.858594,
2012-07-31, 02:33:04,VALID,999.475,VALID,0,VALID,78.4935,VALID,0,VALID,23.6994,VALID,59,VALID,0.917578,
2012-07-31, 02:34:04,VALID,999.496,VALID,0,VALID,78.0586,VALID,0.104696,VALID,23.6994,VALID,81,VALID,0.839453,
2012-07-31, 02:35:04,VALID,999.482,VALID,0,VALID,77.7382,VALID,0,VALID,23.7189,VALID,90,VALID,0.806641,
2012-07-31, 02:36:04,VALID,999.46,VALID,0,VALID,77.6009,VALID,0,VALID,23.7579,VALID,71,VALID,0.632031,
2012-07-31, 02:37:04,VALID,999.463,VALID,0,VALID,77.6085,VALID,0,VALID,23.7793,VALID,71,VALID,0.645312,
2012-07-31, 02:38:04,VALID,999.472,VALID,0,VALID,77.7001,VALID,0,VALID,23.7579,VALID,71,VALID,0.341406,
2012-07-31, 02:39:04,VALID,999.492,VALID,0,VALID,77.7153,VALID,0,VALID,23.7384,VALID,71,VALID,0.204297,
2012-07-31, 02:40:04,VALID,999.49,VALID,0,VALID,77.8603,VALID,0,VALID,23.7384,VALID,71,VALID,0.233203,
2012-07-31, 02:41:04,VALID,999.488,VALID,0,VALID,77.7153,VALID,0,VALID,23.7207,VALID,71,VALID,0.289063,
2012-07-31, 02:42:04,VALID,999.505,VALID,0,VALID,78.051,VALID,0,VALID,23.6799,VALID,71,VALID,0.424219,
2012-07-31, 02:43:04,VALID,999.507,VALID,0,VALID,78.051,VALID,0,VALID,23.6799,VALID,71,VALID,0.174609,
2012-07-31, 02:44:04,VALID,999.513,VALID,0,VALID,78.4172,VALID,0,VALID,23.6604,VALID,71,VALID,0.129297,
2012-07-31, 02:45:04,VALID,999.477,VALID,0,VALID,78.4401,VALID,0.104696,VALID,23.6409,VALID,71,VALID,0.567578,
2012-07-31, 02:46:04,VALID,999.46,VALID,0,VALID,78.3943,VALID,0,VALID,23.6409,VALID,71,VALID,0.325391,
2012-07-31, 02:47:04,VALID,999.428,VALID,0,VALID,78.9284,VALID,0,VALID,23.6817,VALID,71,VALID,0.485938,
2012-07-31, 02:48:04,VALID,999.398,VALID,0,VALID,79.1878,VALID,0,VALID,23.6409,VALID,70,VALID,0.572266,
2012-07-31, 02:49:04,VALID,999.358,VALID,0,VALID,79.4701,VALID,0,VALID,23.6214,VALID,41,VALID,0.652734,
2012-07-31, 02:50:04,VALID,999.38,VALID,0,VALID,79.5083,VALID,0,VALID,23.6036,VALID,349,VALID,0.450781,
2012-07-31, 02:51:04,VALID,999.354,VALID,0,VALID,79.0429,VALID,0,VALID,23.5646,VALID,349,VALID,0.419531,
2012-07-31, 02:52:04,VALID,999.39,VALID,0,VALID,78.8063,VALID,0,VALID,23.5841,VALID,349,VALID,0.449219,
2012-07-31, 02:53:04,VALID,999.369,VALID,0,VALID,78.7529,VALID,0,VALID,23.6232,VALID,349,VALID,0.444922,
2012-07-31, 02:54:04,VALID,999.358,VALID,0,VALID,78.4478,VALID,0,VALID,23.6427,VALID,349,VALID,0.527344,
2012-07-31, 02:55:04,VALID,999.387,VALID,0,VALID,78.3257,VALID,0,VALID,23.6622,VALID,357,VALID,0.699609,
2012-07-31, 02:56:04,VALID,999.404,VALID,0,VALID,78.0663,VALID,0,VALID,23.6817,VALID,37,VALID,0.913672,
2012-07-31, 02:57:04,VALID,999.432,VALID,0,VALID,76.6014,VALID,0,VALID,23.7597,VALID,57,VALID,1.04844,
2012-07-31, 02:58:04,VALID,999.475,VALID,0,VALID,76.3038,VALID,0,VALID,23.875,VALID,68,VALID,0.582422,
2012-07-31, 02:59:04,VALID,999.435,VALID,0,VALID,75.9071,VALID,0,VALID,23.9531,VALID,78,VALID,0.790625,
2012-07-31, 03:00:04,VALID,999.424,VALID,0,VALID,76.0063,VALID,0,VALID,24.0134,VALID,78,VALID,0.716797,
2012-07-31, 03:01:04,VALID,999.421,VALID,0,VALID,76.0139,VALID,0,VALID,24.0329,VALID,78,VALID,0.682813,
2012-07-31, 03:02:04,VALID,999.392,VALID,0,VALID,75.7926,VALID,0,VALID,24.0311,VALID,78,VALID,0.691016,
2012-07-31, 03:03:04,VALID,999.349,VALID,0,VALID,75.7698,VALID,0,VALID,24.0506,VALID,78,VALID,0.862109,
2012-07-31, 03:04:04,VALID,999.362,VALID,0,VALID,75.6172,VALID,0,VALID,24.072,VALID,78,VALID,0.708984,
2012-07-31, 03:05:04,VALID,999.361,VALID,0,VALID,76.0902,VALID,0,VALID,24.072,VALID,78,VALID,0.627734,
2012-07-31, 03:06:04,VALID,999.362,VALID,0,VALID,75.6248,VALID,0,VALID,24.0525,VALID,78,VALID,0.642578,
2012-07-31, 03:07:04,VALID,999.38,VALID,0,VALID,75.724,VALID,0,VALID,24.072,VALID,78,VALID,0.720312,
2012-07-31, 03:08:04,VALID,999.395,VALID,0,VALID,75.8003,VALID,0,VALID,24.0915,VALID,78,VALID,0.582031,
2012-07-31, 03:09:04,VALID,999.409,VALID,0,VALID,76.0749,VALID,0,VALID,24.072,VALID,79,VALID,0.751953,
2012-07-31, 03:10:04,VALID,999.439,VALID,0,VALID,76.3038,VALID,0,VALID,24.072,VALID,101,VALID,0.732031,
2012-07-31, 03:11:04,VALID,999.433,VALID,0,VALID,76.403,VALID,0,VALID,24.0116,VALID,92,VALID,0.81875,
2012-07-31, 03:12:04,VALID,999.446,VALID,0,VALID,76.9905,VALID,0,VALID,24.0134,VALID,119,VALID,0.842578,
2012-07-31, 03:13:04,VALID,999.449,VALID,0,VALID,77.3491,VALID,0,VALID,23.9549,VALID,119,VALID,0.965625,
2012-07-31, 03:14:04,VALID,999.43,VALID,0,VALID,76.8684,VALID,0.104696,VALID,23.9549,VALID,117,VALID,1.56523,
2012-07-31, 03:15:04,VALID,999.466,VALID,0,VALID,77.021,VALID,0,VALID,23.9744,VALID,114,VALID,1.44219,
2012-07-31, 03:16:04,VALID,999.455,VALID,0,VALID,77.2194,VALID,0,VALID,23.9549,VALID,110,VALID,1.34727,
2012-07-31, 03:17:04,VALID,999.453,VALID,0,VALID,77.3567,VALID,0,VALID,23.914,VALID,117,VALID,1.02383,
2012-07-31, 03:18:04,VALID,999.427,VALID,0,VALID,77.2194,VALID,0,VALID,23.9159,VALID,118,VALID,1.55039,
2012-07-31, 03:19:04,VALID,999.445,VALID,0,VALID,77.5169,VALID,0,VALID,23.9354,VALID,116,VALID,1.19453,
2012-07-31, 03:20:04,VALID,999.43,VALID,0,VALID,77.0973,VALID,0,VALID,23.9354,VALID,115,VALID,1.72656,
2012-07-31, 03:21:04,VALID,999.405,VALID,0,VALID,77.1507,VALID,0,VALID,23.9744,VALID,115,VALID,1.06055,
2012-07-31, 03:22:04,VALID,999.397,VALID,0,VALID,76.9447,VALID,0,VALID,23.9726,VALID,98,VALID,0.928906,
2012-07-31, 03:23:04,VALID,999.408,VALID,0,VALID,76.5861,VALID,0,VALID,23.9726,VALID,105,VALID,0.875,
2012-07-31, 03:24:04,VALID,999.409,VALID,0,VALID,76.3344,VALID,0,VALID,24.0329,VALID,125,VALID,1.14648,
2012-07-31, 03:25:04,VALID,999.4,VALID,0,VALID,76.6014,VALID,0,VALID,24.0525,VALID,134,VALID,0.585156,
2012-07-31, 03:26:04,VALID,999.384,VALID,0,VALID,76.7082,VALID,0,VALID,24.0329,VALID,121,VALID,1.47891,
2012-07-31, 03:27:04,VALID,999.384,VALID,0,VALID,76.8379,VALID,0,VALID,24.0134,VALID,126,VALID,1.06055,
2012-07-31, 03:28:04,VALID,999.383,VALID,0,VALID,76.7311,VALID,0,VALID,24.0134,VALID,139,VALID,0.945313,
2012-07-31, 03:29:04,VALID,999.389,VALID,0,VALID,76.2657,VALID,0,VALID,24.0116,VALID,141,VALID,1.71133,
2012-07-31, 03:30:04,VALID,999.405,VALID,0,VALID,76.403,VALID,0,VALID,24.0525,VALID,132,VALID,1.6293,
2012-07-31, 03:31:04,VALID,999.39,VALID,0,VALID,76.0292,VALID,0,VALID,24.072,VALID,134,VALID,2.49805,
2012-07-31, 03:32:04,VALID,999.383,VALID,0,VALID,75.8766,VALID,0,VALID,24.0701,VALID,129,VALID,1.92031,
2012-07-31, 03:33:04,VALID,999.362,VALID,0,VALID,75.8689,VALID,0,VALID,24.0897,VALID,140,VALID,1.57617,
2012-07-31, 03:34:04,VALID,999.375,VALID,0,VALID,76.0292,VALID,0,VALID,24.111,VALID,140,VALID,1.65664,
2012-07-31, 03:35:04,VALID,999.373,VALID,0,VALID,76.0139,VALID,0,VALID,24.0506,VALID,135,VALID,2.04883,
2012-07-31, 03:36:04,VALID,999.363,VALID,0,VALID,75.9529,VALID,0,VALID,24.0506,VALID,145,VALID,2.52734,
2012-07-31, 03:37:04,VALID,999.388,VALID,0,VALID,76.0749,VALID,0,VALID,24.0525,VALID,135,VALID,2.6,
2012-07-31, 03:38:04,VALID,999.353,VALID,0,VALID,76.0215,VALID,0,VALID,24.0311,VALID,135,VALID,2.46719,
2012-07-31, 03:39:04,VALID,999.292,VALID,0,VALID,76.0749,VALID,0,VALID,24.0116,VALID,134,VALID,3.10195,
2012-07-31, 03:40:04,VALID,999.327,VALID,0,VALID,76.136,VALID,0,VALID,24.0116,VALID,133,VALID,2.47656,
2012-07-31, 03:41:04,VALID,999.33,VALID,0,VALID,76.2504,VALID,0,VALID,24.0329,VALID,134,VALID,2.43945,
2012-07-31, 03:42:04,VALID,999.34,VALID,0,VALID,76.4946,VALID,0,VALID,23.9939,VALID,142,VALID,1.94727,
2012-07-31, 03:43:04,VALID,999.314,VALID,0,VALID,76.4717,VALID,0,VALID,23.9726,VALID,132,VALID,2.06602,
2012-07-31, 03:44:04,VALID,999.266,VALID,0,VALID,76.6777,VALID,0,VALID,23.9336,VALID,142,VALID,2.10977,
2012-07-31, 03:45:04,VALID,999.234,VALID,0,VALID,76.3191,VALID,0,VALID,23.9549,VALID,133,VALID,2.81992,
2012-07-31, 03:46:04,VALID,999.234,VALID,0,VALID,76.3725,VALID,0,VALID,23.9939,VALID,133,VALID,1.87891,